{"data":{"norad_id":58828,"intl_designator":"2024-017C","name":"STARLINK-31222","alt_names":[],"object_type":"PAYLOAD","status":"ACTIVE","operator":null,"country":"US","launch_date":"2024-01-24","launch_site_code":"AFWTR","launch_vehicle":null,"mission":null,"orbit_class":"UNKNOWN","rcs_meters":null,"size_class":null,"mass_kg":null,"dimensions":null,"purposes":["comms"],"wikipedia_slug":null,"has_3d_model":false,"image_url":null,"decayed_at":null,"tle_current":{"epoch":"2026-05-25T04:34:15.412224Z","epoch_age_seconds":61636,"freshness":"FRESH","line1":"1 58828U 24017C   26145.19045616  .00000672  00000+0  34797-4 0  9993","line2":"2 58828  53.1599 208.6393 0001084  79.1899 280.9224 15.30197413131772","mean_motion":15.30197413,"eccentricity":0.0001084,"inclination_deg":53.1599,"raan_deg":208.6393,"arg_perigee_deg":79.1899,"mean_anomaly_deg":280.9224,"bstar":3.4797e-5,"rev_number":13177,"period_min":94.105504803909,"perigee_km":474.47988954425,"apogee_km":475.96569794754,"semimajor_km":6853.3597937459,"source":"CELESTRAK","updated_at":"2026-05-25T13:38:18.753093Z"}}}